DW8761 Weather Reports


Display with metric or nautical units.
time (UTC)temp
F
wind
direction
speed
MPH
gust
MPH
rain 1hr
in
rain 24hr
in
rain mn
in
humidity
%
barometer
mb
20170723083057 57 80 3.0 11.0 0.00 0.00 0.00 96 1019.1
20170723081539 57 39 2.0 10.0 0.00 0.00 0.00 95 1019.2
20170723080008 58 32 3.0 12.0 0.00 0.00 0.00 96 1019.2
20170723074503 58 17 4.0 15.0 0.00 0.00 0.00 96 1019.3
20170723072947 58 61 2.0 13.0 0.00 0.00 0.00 95 1019.3
20170723071425 58 338 3.0 13.0 0.00 0.00 0.00 95 1019.3
20170723065845 59 36 2.0 9.0 0.00 0.00 0.00 96 1019.2
20170723064331 59 315 4.0 16.0 0.00 0.00 0.00 95 1019.1
20170723062825 59 63 3.0 11.0 0.00 0.00 0.00 95 1019.2
20170723061310 59 29 1.0 11.0 0.00 0.00 0.00 95 1019.3
20170723055756 59 14 0.0 10.0 0.00 0.00 0.00 95 1019.5
20170723054240 59 63 2.0 12.0 0.00 0.00 0.00 96 1019.4
20170723052725 60 323 1.0 11.0 0.00 0.00 0.00 95 1019.4
20170723051213 60 355 1.0 14.0 0.00 0.00 0.00 95 1019.4
20170723045701 60 37 3.0 12.0 0.00 0.00 0.00 95 1019.5
20170723044152 60 324 1.0 11.0 0.00 0.00 0.00 95 1019.4
20170723042622 60 61 2.0 12.0 0.00 0.00 0.00 94 1019.5
20170723041112 60 311 2.0 12.0 0.00 0.00 0.00 94 1019.3
20170723035559 61 350 2.0 12.0 0.00 0.00 0.00 94 1019.3
20170723034046 61 5 2.0 10.0 0.00 0.00 0.00 94 1019.1
20170723032542 61 320 2.0 8.0 0.00 0.00 0.00 93 1019.0
20170723031005 62 105 4.0 14.0 0.00 0.00 0.00 93 1019.1
20170723025450 62 336 2.0 9.0 0.00 0.00 0.00 93 1019.1
20170723023941 62 5 2.0 13.0 0.00 0.00 0.00 93 1019.2
20170723022423 62 24 2.0 12.0 0.00 0.00 0.00 92 1019.3
20170723020904 63 30 3.0 9.0 0.00 0.00 0.00 92 1019.5
20170723015356 63 34 2.0 8.0 0.00 0.00 0.00 91 1019.5
20170723013838 64 328 2.0 11.0 0.00 0.00 0.00 90 1019.6
20170723012331 64 59 2.0 8.0 0.00 0.00 0.00 90 1019.6
20170723010807 64 9 2.0 12.0 0.00 0.00 0.00 90 1019.8
20170723005256 64 321 2.0 11.0 0.00 0.00 0.00 89 1020.0
20170723003738 65 28 3.0 14.0 0.00 0.00 0.00 88 1020.3
20170723002226 65 349 2.0 10.0 0.00 0.00 0.00 86 1020.2
20170723000718 67 316 3.0 12.0 0.00 0.00 0.00 86 1020.3
20170722235209 67 55 2.0 9.0 0.00 0.00 0.00 85 1020.4
20170722233649 67 80 3.0 14.0 0.00 0.00 0.00 84 1020.7
20170722232133 68 348 3.0 10.0 0.00 0.00 0.00 84 1020.7
20170722230620 68 64 3.0 10.0 0.00 0.00 0.00 83 1020.9
20170722225100 69 34 1.0 10.0 0.00 0.00 0.00 82 1020.9
20170722223546 69 17 2.0 11.0 0.00 0.00 0.00 81 1021.0
20170722222014 70 48 3.0 10.0 0.00 0.00 0.00 79 1021.2
20170722220451 71 13 3.0 12.0 0.00 0.00 0.00 79 1021.4
20170722214936 72 327 3.0 10.0 0.00 0.00 0.00 78 1021.4
20170722213420 72 342 2.0 10.0 0.00 0.00 0.00 78 1021.5
20170722211906 71 19 2.0 9.0 0.00 0.00 0.00 77 1021.6
20170722210358 73 17 2.0 11.0 0.00 0.00 0.00 74 1021.8
20170722204837 74 42 3.0 10.0 0.00 0.00 0.00 73 1022.0
20170722203328 75 35 2.0 12.0 0.00 0.00 0.00 74 1022.1
20170722201812 74 40 2.0 9.0 0.00 0.00 0.00 75 1022.1
20170722200302 72 336 3.0 8.0 0.00 0.00 0.00 77 1022.1
20170722194736 72 54 2.0 9.0 0.00 0.00 0.00 78 1022.3
20170722193220 71 221 2.0 9.0 0.00 0.00 0.00 78 1022.4
20170722191707 70 299 3.0 9.0 0.00 0.00 0.00 77 1022.5
20170722190153 70 360 3.0 7.0 0.00 0.00 0.00 78 1022.5
20170722184631 70 19 0.0 7.0 0.00 0.00 0.00 78 1022.5
20170722183115 69 330 1.0 6.0 0.00 0.00 0.00 79 1022.4
20170722181556 67 267 2.0 5.0 0.00 0.00 0.00 80 1022.4
20170722180046 67 312 2.0 6.0 0.00 0.00 0.00 80 1022.4
20170722174507 66 355 2.0 7.0 0.00 0.00 0.00 80 1022.5
20170722173000 66 325 2.0 5.0 0.00 0.00 0.00 80 1022.5
20170722171453 66 355 2.0 6.0 0.00 0.00 0.00 80 1022.5
20170722165918 65 317 1.0 4.0 0.00 0.00 0.00 81 1022.5
20170722164410 64 319 1.0 4.0 0.00 0.00 0.00 82 1022.6
20170722162846 63 329 1.0 3.0 0.00 0.00 0.00 85 1022.8
20170722161339 62 329 1.0 3.0 0.00 0.00 0.00 87 1022.9
20170722155813 61 338 1.0 4.0 0.00 0.00 0.00 89 1023.0
20170722154255 60 226 0.0 3.0 0.00 0.00 0.00 91 1022.9
20170722152743 60 160 0.0 0.0 0.00 0.00 0.00 92 1022.9
20170722151231 59 160 0.0 2.0 0.00 0.00 0.00 93 1022.8
20170722145706 58 159 2.0 4.0 0.00 0.00 0.00 94 1022.7
20170722144158 57 159 0.0 1.0 0.00 0.00 0.00 95 1022.6
20170722142638 56 159 1.0 6.0 0.00 0.00 0.00 95 1022.5
20170722141123 56 152 2.0 5.0 0.00 0.00 0.00 95 1022.4
20170722135609 55 153 1.0 6.0 0.00 0.00 0.00 95 1022.3
20170722134059 55 146 1.0 4.0 0.00 0.00 0.00 95 1022.2
20170722132541 55 153 0.0 5.0 0.00 0.00 0.00 95 1022.2
20170722131009 55 153 0.0 0.0 0.00 0.00 0.00 95 1022.1
20170722125452 55 153 1.0 3.0 0.00 0.00 0.00 95 1022.0
20170722123936 55 152 1.0 3.0 0.00 0.00 0.00 94 1022.1
20170722122421 55 150 1.0 5.0 0.00 0.00 0.00 94 1021.9
20170722120912 55 153 1.0 4.0 0.00 0.00 0.00 94 1021.8
20170722115351 55 150 1.0 5.0 0.00 0.00 0.00 94 1021.8
20170722113840 55 149 0.0 5.0 0.00 0.00 0.00 95 1021.8
20170722112330 54 131 0.0 3.0 0.00 0.00 0.00 94 1021.8
20170722110815 54 67 0.0 0.0 0.00 0.00 0.00 94 1021.8
20170722105258 54 35 0.0 0.0 0.00 0.00 0.00 94 1021.7
20170722103741 54 35 0.0 2.0 0.00 0.00 0.00 94 1021.7
20170722102231 54 34 0.0 0.0 0.00 0.00 0.00 93 1021.7
20170722100717 54 34 0.0 0.0 0.00 0.00 0.00 93 1021.6
20170722095157 54 34 0.0 0.0 0.00 0.00 0.00 93 1021.7
20170722093626 54 34 0.0 0.0 0.00 0.00 0.00 93 1021.7
20170722092115 54 34 0.0 0.0 0.00 0.00 0.00 93 1021.7
20170722090514 55 34 0.0 0.0 0.00 0.00 0.00 93 1021.8
20170722084951 55 34 0.0 0.0 0.00 0.00 0.00 93 1021.8
20170722083429 55 34 0.0 0.0 0.00 0.00 0.00 92 1021.9